DW4221 Weather Reports


time (UTC)temp
C
wind
direction
speed
KPH
gust
KPH
rain 1hr
cm
rain 24hr
cm
rain mn
cm
humidity
%
barometer
mb
20260904211603 19 88 1.6 6.4 0.00 3.02 1.37 90 1017.3
20260904210104 19 0 1.6 9.7 0.00 3.02 1.37 90 1017.3
20260904204601 20 60 1.6 6.4 0.00 3.02 1.37 89 1017.2
20260904203057 19 0 1.6 4.8 0.00 3.02 1.37 90 1017.1
20260904201633 19 0 3.2 8.0 0.00 3.02 1.37 89 1017.1
20260904200107 19 0 0.0 6.4 0.00 3.02 1.37 90 1017.1
20260904194603 19 123 1.6 6.4 0.00 3.02 1.37 90 1016.8
20260904193056 19 24 0.0 6.4 0.03 3.02 1.37 90 1016.9
20260904191603 19 85 0.0 6.4 0.03 3.02 1.37 90 1016.8
20260904184553 18 83 1.6 6.4 0.03 3.02 1.37 92 1016.8
20260904183117 18 137 1.6 8.0 0.00 2.97 1.32 92 1016.8
20260904181604 18 104 1.6 8.0 0.00 2.97 1.32 92 1016.8
20260904180100 18 119 1.6 6.4 0.00 2.97 1.32 93 1016.8
20260904174605 18 106 1.6 4.8 0.00 2.97 1.32 93 1016.8
20260904173103 18 143 3.2 6.4 0.00 2.97 1.32 92 1016.7
20260904171615 17 53 1.6 6.4 0.00 2.97 1.32 94 1016.8
20260904170057 17 97 1.6 9.7 0.00 2.97 1.32 94 1016.7
20260904164634 17 0 0.0 3.2 0.00 2.97 1.32 96 1016.6
20260904163101 17 0 0.0 4.8 0.00 2.97 1.32 97 1016.7
20260904161559 17 67 0.0 6.4 0.00 2.97 1.32 97 1016.6
20260904160057 16 34 0.0 4.8 0.00 2.97 1.32 96 1016.7
20260904154605 16 352 0.0 8.0 0.00 2.97 1.32 96 1016.5
20260904153113 16 0 1.6 6.4 0.00 2.97 1.32 96 1016.2
20260904151601 16 61 1.6 6.4 0.00 2.97 1.32 97 1016.0
20260904150057 16 46 0.0 6.4 0.00 2.97 1.32 97 1015.8
20260904144604 16 62 0.0 4.8 0.00 2.97 1.32 98 1015.8
20260904143103 16 59 0.0 8.0 0.00 2.97 1.32 99 1015.8
20260904141603 15 0 1.6 8.0 0.00 2.97 1.32 99 1015.4
20260904134604 15 0 3.2 6.4 0.00 2.97 1.32 99 1015.3
20260904133106 15 0 1.6 12.9 0.00 2.97 1.32 99 1015.1
20260904131612 15 29 1.6 6.4 0.00 2.97 1.32 99 1015.1
20260904130100 15 0 0.0 8.0 0.00 2.97 1.32 99 1015.1
20260904124607 15 124 3.2 9.7 0.00 2.97 1.32 99 1014.9
20260904123105 15 57 1.6 11.3 0.00 2.97 1.32 99 1014.9
20260904121606 14 63 1.6 9.7 0.00 2.97 1.32 99 1014.6
20260904120108 14 0 1.6 6.4 0.00 2.97 1.32 99 1014.6
20260904114608 14 38 0.0 4.8 0.00 2.97 1.32 98 1014.4
20260904113106 14 46 1.6 6.4 0.00 2.97 1.32 98 1014.1
20260904111606 14 44 1.6 6.4 0.00 2.97 1.32 98 1013.9
20260904104559 14 0 0.0 9.7 0.00 2.97 1.32 98 1013.6
20260904103057 14 156 1.6 8.0 0.00 2.97 1.32 98 1013.4
20260904101611 13 126 1.6 9.7 0.00 2.97 1.32 98 1013.3
20260904100110 13 60 1.6 6.4 0.00 2.97 1.32 98 1013.4
20260904094607 13 0 0.0 4.8 0.00 2.97 1.32 98 1013.6
20260904093118 13 0 0.0 1.6 0.00 2.97 1.32 97 1013.6
20260904091615 13 0 0.0 3.2 0.00 2.97 1.32 97 1013.4
20260904090106 13 0 0.0 0.0 0.00 2.97 1.32 97 1013.2
20260904084606 13 0 0.0 0.0 0.00 2.97 1.32 97 1013.2
20260904083105 14 83 0.0 1.6 0.00 2.97 1.32 97 1013.0
20260904081555 14 0 0.0 4.8 0.00 2.97 1.32 97 1012.8
20260904080053 14 153 0.0 16.1 0.00 2.97 1.32 97 1012.4
20260904074604 14 101 4.8 14.5 0.10 2.97 1.32 97 1012.4
20260904073124 14 110 9.7 25.7 0.43 2.97 1.32 97 1012.6
20260904071606 14 101 3.2 9.7 1.07 2.97 1.32 97 1013.4
20260904070106 14 166 1.6 16.1 1.27 2.97 1.32 97 1014.2
20260904064604 14 130 3.2 9.7 1.19 2.90 1.24 97 1014.8
20260904063110 15 52 3.2 12.9 0.86 2.54 0.89 97 1015.1
20260904061554 15 11 4.8 17.7 0.20 1.88 0.23 96 1014.8
20260904060125 15 87 4.8 11.3 0.08 1.73 0.08 97 1014.1
20260904054618 15 0 0.0 9.7 0.05 1.70 0.05 97 1014.2
20260904053101 15 95 1.6 4.8 0.03 1.68 0.03 98 1014.0
20260904051555 15 96 0.0 6.4 0.03 1.68 0.03 97 1014.0
20260904050050 15 99 0.0 4.8 0.00 1.65 0.00 97 1014.4
20260904044556 15 0 0.0 6.4 0.00 1.65 1.65 97 1014.3
20260904043057 15 102 0.0 4.8 0.00 1.65 1.65 97 1014.4
20260904041605 15 0 0.0 4.8 0.00 1.65 1.65 97 1013.9
20260904040057 15 104 1.6 9.7 0.00 1.65 1.65 97 1013.8
20260904034551 15 111 0.0 6.4 0.00 1.65 1.65 97 1013.9
20260904033102 15 128 4.8 14.5 0.00 1.65 1.65 97 1013.3
20260904031607 15 0 0.0 4.8 0.00 1.65 1.65 97 1014.4
20260904030104 15 119 1.6 6.4 0.00 1.65 1.65 96 1014.9
20260904024604 15 0 0.0 11.3 0.10 1.65 1.65 96 1014.5
20260904023102 15 97 3.2 12.9 0.30 1.65 1.65 96 1014.8
20260904021608 15 0 0.0 9.7 1.37 1.65 1.65 95 1014.8
20260904020106 16 41 1.6 8.0 1.65 1.65 1.65 95 1015.0
20260904014620 16 127 0.0 3.2 1.55 1.55 1.55 93 1016.0
20260904013112 16 165 1.6 6.4 1.32 1.32 1.32 90 1015.8
20260904011606 18 237 3.2 20.9 0.25 0.25 0.25 82 1016.6
20260904010115 19 153 1.6 11.3 0.00 0.00 0.00 70 1014.6
20260904004558 20 197 3.2 14.5 0.00 0.00 0.00 70 1014.0
20260904003133 20 114 3.2 12.9 0.00 0.00 0.00 69 1013.7
20260904001602 20 115 3.2 12.9 0.00 0.00 0.00 69 1013.8
20260904000103 20 98 4.8 14.5 0.00 0.00 0.00 68 1013.5
20260903234557 21 0 3.2 16.1 0.00 0.00 0.00 68 1013.5
20260903233100 21 117 9.7 24.1 0.00 0.00 0.00 66 1013.2
20260903231611 22 123 3.2 17.7 0.00 0.00 0.00 66 1012.9
20260903230106 22 64 1.6 16.1 0.00 0.00 0.00 65 1012.8
20260903224600 22 72 4.8 16.1 0.00 0.00 0.00 64 1012.9
20260903223107 23 117 4.8 14.5 0.00 0.00 0.00 64 1013.3
20260903221607 23 78 4.8 16.1 0.00 0.00 0.00 63 1013.0
20260903220104 22 81 4.8 14.5 0.00 0.00 0.00 64 1012.9
20260903214603 23 141 6.4 16.1 0.00 0.00 0.00 61 1013.3
20260903213058 23 130 4.8 16.1 0.00 0.00 0.00 61 1013.3